Location: Newark
(12.5331°N, 56.4669°W)
Time: 06:28:15
(UTC+00:00)

LightSail 2 - Pass Details

Date: 26 January 2020
Orbit: 700 x 722 km, 24.0° (Epoch: 20 February)

Event Time Altitude Azimuth Distance (km) Brightness Sun altitude
Rises 23:58:00 0° 297° (WNW) 3,081 9.1 -32.1°
Reaches altitude 10° 00:00:29 10° 302° (WNW) 2,167 8.1 -32.7°
Enters shadow 00:02:16 21° 310° (NW) 1,544 7.1 -33.1°
